Poker Uang Asli | Poker Online | Dewa Poker

Jackpot

Texas Poker Multi Jackpot System

Kini Telah hadir Jackpot SUPER ROYAL FLUSH

Kini Telah hadir Jackpot 2000 (khusus table VIP keatas).

Ikutilah global jackpot yang tersedia di system kami, dengan system jackpot terbaru dan pertama di indonesia, anda dapat membeli jackpot dengan harga 100 rupiah saja dan menangkan hadiahnya hingga puluhan juta rupiah.

Jackpot bukanlah suatu keharusan untuk dibeli, namun kami memberikan suatu fitur tambahan untuk member tercinta dari www.satriapoker.org.

Terdapat tiga pilihan harga jackpot yang bisa anda beli yaitu :100,500,1000 dan 2000(khusus table VIP Keatas) rupiah.

Hadiah dari Multi jackpot system www.satriapoker.org

  1. full house x 10 harga jackpot yang anda beli.
      (contoh:anda membeli 1000 maka:1000 X10 = 10.000)
  2. four of kind x 250 harga jackpot yang anda beli
      (contoh:anda membeli 1000 maka:1000 X250 = 250.000)
  3. Straight flush x 1200
      (contoh:anda membeli 1000 maka:1000 X1200 = 1.200.000)
  4. Royal flush x 10000 harga jackpot yang anda beli
      (contoh:anda membeli 1000 maka:1000 X10000 = 10.000.000)
  5. SUPER ROYAL FLUSH x 30000 harga jackpot yang anda beli
      (contoh:anda membeli 1000 maka:1000 X30000 = 30.000.000)

Kondisi kartu

  1. full house adalah kondisi kartu dimana kartu anda dan kartu tengah dengan total 7 kartu bisa mendapatkan nilai 5 kartu dengan kombinasi 1 tris(three of kind) dan 1 pair, contoh 3 kartu 10 dan 2 kartu 5
  2. Four of kind adalah kondisi kartu dimana kartu anda dan kartu tengah dengan total 7 kartu bisa mendapatkan nilai 5 kartu dengan kombinasi 4 kartu yang sama jumlah dan 1 kartu apapun juga contoh anda mendapatkan 4 buah kartu angka 3 dan 1 kartu apapun.
  3. Staright flush adalah kondisi kartu dimana kartu anda dan kartu tengah dengan total 7 kartu bisa mendapatkan nilai 5 kartu dengan kombinasi seri / staright dengan kembang yang sama contoh : urutan kartu dari angka 5, 6, 7, 8 , 9 10 dengan kembang yg sama misalnya as hati
  4. Royal flush adalah kondisi kartu dimana kartu anda dan kartu tengah dengan total 7 kartu bisa mendapatkan nilai 5 kartu dengan kombinasi seri / staright dengan kembang yang sama tetapi kartu tersebut haruslah dimulai dari 10. contoh 10, Queen, Jack, King dan aces dengan kembang yang sama
  5. Super Royal flush adalah kondisi kartu dimana Kedua kartu anda digabung dengan 3 kartu pertama meja haruslah royal flush. contoh kartu anda 10,Queen kembang sama dan 3 kartu pertama meja adalah Jack, King dan aces dengan kembang yang sama

Demikian adalah penjelasan dari Multi Jackpot www.satriapoker.org terima kasih dan selamat bermain salam hoki dari kami

Texas Poker Jackpot Winner

TOP SUPER ROYAL FLUSH
No.TanggalNamaPriceWin
124/05 21:47BAYAKA79Super Royal flush6,000,000
224/05 18:19BUZET7Super Royal flush15,000,000
324/05 16:02MIRAZ_AOSuper Royal flush30,000,000
424/05 07:50QQDKI2Super Royal flush15,000,000
524/05 05:06EXTRIM_Super Royal flush30,000,000
TOP ROYAL FLUSH
No.TanggalNamaPriceWin
124/05 22:15MELEKE12Royal flush2,000,000
224/05 22:02HAKIKISKY2Royal flush2,000,000
324/05 21:48SMIRVOFGOARoyal flush10,000,000
424/05 21:33BOJAKKRoyal flush500,000
524/05 21:20MAURIYANRoyal flush10,000,000
TOP STRAIGHT FLUSH
No.TanggalNamaPriceWin
124/05 22:17NUSUBALStraight Flush600,000
224/05 22:16SENO024Straight Flush240,000
324/05 22:15JEROWI99Straight Flush120,000
424/05 22:14N4NSUK0_Straight Flush60,000
524/05 22:13YOIHUMANS1Straight Flush600,000
LATEST JACKPOT
No.TanggalNamaPriceWin
124/05 22:17BOSYUSUFFour Of A Kind250,000
224/05 22:17RAJO1305Full House5,000
324/05 22:17SIFTER020Four Of A Kind250,000
424/05 22:17AYMAN69Full House10,000
524/05 22:17LIER6666Full House5,000
624/05 22:17M2FAHRY46Full House2,000
724/05 22:17TEMPIK01Full House2,000
824/05 22:17YKB881200Full House1,000
924/05 22:17MASTOYANFour Of A Kind25,000
1024/05 22:17BUMIL255Full House10,000
1124/05 22:17JOKI94Full House1,000
1224/05 22:17WONGBUYAN3Full House2,000
1324/05 22:17JTQNFJVYD2Full House1,000
1424/05 22:17ANHQUAN1Full House20,000
1524/05 22:17GREMIO1Full House20,000
1624/05 22:17HIU8Full House10,000
1724/05 22:17GADABAH77Full House1,000
1824/05 22:17RJ_EJA_Full House5,000
1924/05 22:17JOSS101Full House10,000
2024/05 22:17GOKAR123Full House2,000
2124/05 22:17BUY0NKFull House5,000
2224/05 22:17A261BFull House10,000
2324/05 22:17DEVANNOFull House1,000
2424/05 22:17DD78RDFull House5,000
2524/05 22:17C841A2ACFour Of A Kind50,000
2624/05 22:17DOVING1Full House2,000
2724/05 22:17GELS24Full House10,000
2824/05 22:17ONIZUKA99Full House10,000
2924/05 22:17BOLON121Full House1,000
3024/05 22:17TEPEN700Full House2,000
3124/05 22:17CENGEKLADAFull House2,000
3224/05 22:17MASTERRSSFull House1,000
3324/05 22:17UING666Full House5,000
3424/05 22:17D4F499Full House10,000
3524/05 22:17JPMIKROTIKFull House5,000
3624/05 22:17HELLENA27Four Of A Kind50,000
3724/05 22:17NUSUBALStraight Flush600,000
3824/05 22:17CHIFLLYFull House2,000
3924/05 22:17KANGTHAUFull House2,000
4024/05 22:17KUKU_KUKFull House10,000
4124/05 22:17BUHITOL007Full House5,000
4224/05 22:17UHUY168Four Of A Kind250,000
4324/05 22:17W6GYI2G9VGFull House10,000
4424/05 22:17EOP8MWOSD4Full House10,000
4524/05 22:17IMAMSANUSFull House5,000
4624/05 22:17OUZQM9MYXHFull House1,000
4724/05 22:17APPOLLO77Full House1,000
4824/05 22:17ASBOO78Full House5,000
4924/05 22:17B010783Full House2,000
5024/05 22:17C_FOURFull House2,000

Domino Multi Jackpot System

Ikutilah global jackpot yang tersedia di system kami, dengan system jackpot terbaru dan pertama di indonesia, anda dapat membeli jackpot dengan harga 100 rupiah saja dan menangkan hadiahnya hingga puluhan juta rupiah.

Jackpot bukanlah suatu keharusan untuk dibeli, namun kami memberikan suatu fitur tambahan untuk member tercinta dari www.satriapoker.org.

Terdapat tiga pilihan harga jackpot yang bisa anda beli yaitu :100,500 dan 1000 rupiah.

Hadiah dari Multi jackpot system www.satriapoker.org

  1. Murni Kecil x 50 harga jackpot yang anda beli.
      (contoh:anda membeli 1000 maka:1000 X 50 = 50.000)
  2. Murni Besar x 50 harga jackpot yang anda beli
      (contoh:anda membeli 1000 maka:1000 X 50 = 50.000)
  3. BALAK x 100 harga jackpot yang anda beli
      (contoh:anda membeli 1000 maka:1000 X 100 = 100.000)
  4. ENAM DEWA x 6666 harga jackpot yang anda beli
      (contoh:anda membeli 1000 maka:1000 X 6666 = 6.666.000)

Demikian adalah penjelasan dari Multi Jackpot www.satriapoker.org terima kasih dan selamat bermain salam hoki dari kami

Domino Jackpot Winner

TOP ENAM DEWA
No.TanggalNamaPriceWin
124/05 22:05EKIJUSSARmurni enam3,333,000
224/05 20:31RRROJO99murni enam3,333,000
324/05 16:40MARYANTO70murni enam6,666,000
424/05 16:17SRILASMINImurni enam666,600
524/05 14:23ZAYEN98murni enam3,333,000
TOP BALAK
No.TanggalNamaPriceWin
124/05 22:15UKWODY4OR6balak100,000
224/05 22:15SONYHADI64balak10,000
324/05 22:13TSALAMA71balak50,000
424/05 22:11EMBLAEM99balak100,000
524/05 22:09ZZZXXX2525balak50,000
LATEST JACKPOT
No.TanggalNamaPriceWin
124/05 22:17OJ4NGK4ND1murni besar50,000
224/05 22:16MHDDONIS19murni besar25,000
324/05 22:16MINGGU1987murni besar50,000
424/05 22:16WEWE08murni kecil50,000
524/05 22:15IRAWAN90murni kecil25,000
624/05 22:15UKWODY4OR6balak100,000
724/05 22:15BAYUNUGRO8murni besar5,000
824/05 22:15SONYHADI64balak10,000
924/05 22:15CWB6PED3RSmurni besar25,000
1024/05 22:14BOOK1928murni besar25,000
1124/05 22:14UKWODY4OR6murni besar50,000
1224/05 22:13NALAGU444murni kecil50,000
1324/05 22:13TSALAMA71balak50,000
1424/05 22:13IMRANKUmurni besar50,000
1524/05 22:12KIWIL057murni kecil50,000
1624/05 22:12KHANZA0202murni besar5,000
1724/05 22:11TOAST24murni besar50,000
1824/05 22:11EMBLAEM99balak100,000
1924/05 22:10BAUMENmurni kecil5,000
2024/05 22:09ZZZXXX2525balak50,000
2124/05 22:09O11B9TPF7Wmurni besar50,000
2224/05 22:09T4DMERCON99murni kecil25,000
2324/05 22:09IW4N98murni kecil25,000
2424/05 22:08WEATERBONDbalak50,000
2524/05 22:07QQGELOmurni besar50,000
2624/05 22:07ARFAQILAmurni besar50,000
2724/05 22:07QNET876murni besar50,000
2824/05 22:07DIVA6608murni kecil50,000
2924/05 22:07SONYHADI64balak10,000
3024/05 22:06DARKSHIPmurni kecil25,000
3124/05 22:06JHONONAR31murni besar50,000
3224/05 22:05KEMEMAJAmurni kecil25,000
3324/05 22:05EKIJUSSARmurni enam3,333,000
3424/05 22:05JHO22murni kecil5,000
3524/05 22:04QNET876murni kecil50,000
3624/05 22:04ZHOU08murni besar50,000
3724/05 22:04EMO331murni kecil50,000
3824/05 22:03THEKING72lucky9910,000
3924/05 22:03WD515murni besar5,000
4024/05 22:03LIUREMASmurni kecil50,000
4124/05 22:03OJ4NGK4ND1murni besar50,000
4224/05 22:02ODL1YEON0Rmurni besar25,000
4324/05 22:02NAL01murni kecil50,000
4424/05 22:02OYIKKK28murni besar50,000
4524/05 22:02KEMEMAJAmurni kecil25,000
4624/05 22:02INSRETmurni kecil25,000
4724/05 22:02JACKSBROmurni besar50,000
4824/05 22:02EA99EE67murni kecil5,000
4924/05 22:01T4G4MB3murni kecil5,000
5024/05 22:01F293D14Dmurni besar5,000

Ceme Multi Jackpot System

Jackpot dilihat dari gabungan kartu pemain dengan kartu bandar. Bandar harus membeli jackpot sebanyak jumlah player yang sedang duduk. Sebagai contoh bila terdapat 3 pemain duduk bermain, dan bandar memutuskan untuk membeli jackpot Rp 1.000, maka pada periode tersebut bandar akan membeli jackpot sebanyak 3xRp1.000 = Rp3.000.

Jackpot bukanlah suatu keharusan untuk dibeli, namun kami memberikan suatu fitur tambahan untuk member tercinta dari www.satriapoker.org.

Terdapat tiga pilihan harga jackpot yang bisa anda beli yaitu :100,500 dan 1000 rupiah.

Hadiah dari Multi jackpot system www.satriapoker.org

  1. Murni Kecil x 50 harga jackpot yang anda beli.
      (contoh:anda membeli 1000 maka:1000 X 50 = 50.000)
  2. Murni Besar x 50 harga jackpot yang anda beli
      (contoh:anda membeli 1000 maka:1000 X 50 = 50.000)
  3. BALAK x 200 harga jackpot yang anda beli
      (contoh:anda membeli 1000 maka:1000 X 200 = 200.000)
  4. ENAM DEWA x 6666 harga jackpot yang anda beli
      (contoh:anda membeli 1000 maka:1000 X 6666 = 6.666.000)

Demikian adalah penjelasan dari Multi Jackpot www.satriapoker.org terima kasih dan selamat bermain salam hoki dari kami

Ceme Jackpot Winner

TOP ENAM DEWA
No.TanggalNamaPriceWin
124/05 22:00BOSMUDA126murni enam3,333,000
224/05 21:42BODREXAAmurni enam6,666,000
324/05 21:41TOJAN88murni enam6,666,000
424/05 21:37THEMASTHERmurni enam3,333,000
524/05 21:35HERWINJImurni enam666,600
TOP BALAK
No.TanggalNamaPriceWin
124/05 22:17HGGFPbalak200,000
224/05 22:16BPUTRA00balak200,000
324/05 22:16KAKAYOUB7balak100,000
424/05 22:16C4E021AFbalak100,000
524/05 22:16SLAM3T12balak200,000
LATEST JACKPOT
No.TanggalNamaPriceWin
124/05 22:17JEFRRY11murni besar50,000
224/05 22:17ONIHOKKI1murni besar50,000
324/05 22:17REZAGORBONmurni besar50,000
424/05 22:17HGGFPbalak200,000
524/05 22:17SECRET1murni besar25,000
624/05 22:17OPR1100murni besar25,000
724/05 22:17JAGAKOEmurni kecil50,000
824/05 22:16XSVNSD68UMmurni besar50,000
924/05 22:16RAJADANUmurni besar50,000
1024/05 22:16BPUTRA00balak200,000
1124/05 22:16KAKAYOUB7balak100,000
1224/05 22:16TIKA811murni besar25,000
1324/05 22:16NURKEMImurni besar5,000
1424/05 22:16LENCNA_36murni besar25,000
1524/05 22:16C4E021AFbalak100,000
1624/05 22:16SLAM3T12balak200,000
1724/05 22:16KYOOKIIbalak200,000
1824/05 22:16PENDI05balak200,000
1924/05 22:16RAJACEME21murni kecil50,000
2024/05 22:16PALASARI2murni kecil50,000
2124/05 22:16B0TO3Lmurni besar50,000
2224/05 22:16RULIN77murni besar5,000
2324/05 22:16JANGEPOTbalak100,000
2424/05 22:16SUNDAGOmurni kecil50,000
2524/05 22:15SPEED45balak200,000
2624/05 22:15BOYSMANmurni besar50,000
2724/05 22:15JABRIG81murni besar50,000
2824/05 22:15DONN187murni besar50,000
2924/05 22:15LATANSA89murni besar25,000
3024/05 22:15TUYUL886murni kecil50,000
3124/05 22:15REANG123murni kecil50,000
3224/05 22:15WIROG235murni besar25,000
3324/05 22:15ORTEGA8790balak200,000
3424/05 22:15SUPRA2323murni kecil5,000
3524/05 22:15SIPUL76murni kecil5,000
3624/05 22:15BEGYAHANbalak200,000
3724/05 22:15BEGYAHANbalak200,000
3824/05 22:15SIMONE55murni kecil50,000
3924/05 22:14BP886647murni kecil25,000
4024/05 22:14PLATI23murni kecil25,000
4124/05 22:14MARGARET69murni besar5,000
4224/05 22:14HOOG7888balak200,000
4324/05 22:14LB88805balak200,000
4424/05 22:14S4BDA16murni besar50,000
4524/05 22:14UMYABY99murni besar5,000
4624/05 22:14SAGERO22murni kecil25,000
4724/05 22:14ADDE998murni kecil50,000
4824/05 22:14AB1DINmurni kecil5,000
4924/05 22:14THEMASTHERmurni kecil25,000
5024/05 22:14RAJACEME21murni kecil50,000